{"data":{"norad_id":50491,"intl_designator":"2021-132Y","name":"ONEWEB-0414","alt_names":[],"object_type":"PAYLOAD","status":"ACTIVE","operator":null,"country":"UK","launch_date":"2021-12-27","launch_site_code":"TYMSC","launch_vehicle":null,"mission":null,"orbit_class":"UNKNOWN","rcs_meters":null,"size_class":null,"mass_kg":null,"dimensions":null,"purposes":["comms"],"wikipedia_slug":null,"has_3d_model":false,"image_url":null,"decayed_at":null,"tle_current":{"epoch":"2026-05-25T02:29:58.434720Z","epoch_age_seconds":66872,"freshness":"FRESH","line1":"1 50491U 21132Y   26145.10414855  .00000031  00000+0  47083-4 0  9993","line2":"2 50491  87.9169 340.0306 0001974  85.1762 274.9595 13.18687291218588","mean_motion":13.18687291,"eccentricity":0.0001974,"inclination_deg":87.9169,"raan_deg":340.0306,"arg_perigee_deg":85.1762,"mean_anomaly_deg":274.9595,"bstar":4.7083e-5,"rev_number":21858,"period_min":109.19950543453,"perigee_km":1188.2442889814,"apogee_km":1191.2320861054,"semimajor_km":7567.8751875434,"source":"CELESTRAK","updated_at":"2026-05-25T13:38:22.532776Z"}}}